Location: Baller�as
(41.9020°N, 0.1554°W)
Time: 12:04:47
(UTC+00:00)

Meteor 2-6 Rocket - Pass Details

Date: 10 August 2020
Orbit: 806 x 914 km, 81.3° (Epoch: 21 September)

Event Time Altitude Azimuth Distance (km) Brightness Sun altitude
Rises 19:42:18 0° 353° (N) 3,369 7.9 -6.8°
Reaches altitude 10° 19:44:42 10° 356° (N) 2,445 7.1 -7.2°
Maximum altitude 19:50:13 66° 79° (E) 921 4.2 -8.1°
Drops below altitude 10° 19:55:51 10° 161° (SSE) 2,500 6.2 -9.0°
Enters shadow 19:58:06 - 164° (SSE) 3,363 6.9 -9.3°
